| time (UTC) | temp C | wind direction | speed KPH | gust KPH | rain 1hr cm | rain 24hr cm | rain mn cm | humidity % | barometer mb |
| 20260906222401 | 22 | 277 | 12.9 | 14.5 | 0.00 | 0.00 | 0.00 | 47 | 927.9 |
| 20260906221903 | 22 | 231 | 6.4 | 20.9 | 0.00 | 0.00 | 0.00 | 47 | 927.9 |
| 20260906221401 | 22 | 265 | 14.5 | 24.1 | 0.00 | 0.00 | 0.00 | 47 | 928.5 |
| 20260906220902 | 22 | 353 | 0.0 | 8.0 | 0.00 | 0.00 | 0.00 | 47 | 928.2 |
| 20260906220401 | 23 | 278 | 3.2 | 20.9 | 0.00 | 0.00 | 0.00 | 47 | 928.5 |
| 20260906215900 | 23 | 341 | 9.7 | 19.3 | 0.00 | 0.00 | 0.00 | 45 | 928.2 |
| 20260906215401 | 23 | 243 | 9.7 | 20.9 | 0.00 | 0.00 | 0.00 | 46 | 928.5 |
| 20260906214901 | 23 | 303 | 12.9 | 14.5 | 0.00 | 0.00 | 0.00 | 45 | 928.5 |
| 20260906214401 | 23 | 243 | 11.3 | 19.3 | 0.00 | 0.00 | 0.00 | 43 | 928.2 |
| 20260906213901 | 25 | 257 | 8.0 | 11.3 | 0.00 | 0.00 | 0.00 | 41 | 928.5 |
| 20260906213401 | 24 | 169 | 6.4 | 8.0 | 0.00 | 0.00 | 0.00 | 43 | 928.5 |
| 20260906212901 | 24 | 25 | 4.8 | 8.0 | 0.00 | 0.00 | 0.00 | 38 | 928.9 |
| 20260906212402 | 24 | 165 | 3.2 | 6.4 | 0.00 | 0.00 | 0.00 | 39 | 928.9 |
| 20260906211902 | 25 | 146 | 3.2 | 9.7 | 0.00 | 0.00 | 0.00 | 39 | 928.9 |
| 20260906211401 | 24 | 140 | 4.8 | 4.8 | 0.00 | 0.00 | 0.00 | 39 | 928.9 |
| 20260906210901 | 23 | 356 | 3.2 | 8.0 | 0.00 | 0.00 | 0.00 | 41 | 928.9 |
| 20260906210402 | 23 | 170 | 6.4 | 8.0 | 0.00 | 0.00 | 0.00 | 41 | 928.9 |
| 20260906205902 | 23 | 23 | 9.7 | 11.3 | 0.00 | 0.00 | 0.00 | 41 | 928.9 |
| 20260906205401 | 23 | 55 | 17.7 | 20.9 | 0.00 | 0.00 | 0.00 | 41 | 929.2 |
| 20260906204902 | 23 | 299 | 4.8 | 8.0 | 0.00 | 0.00 | 0.00 | 41 | 929.2 |
| 20260906204401 | 23 | 148 | 3.2 | 4.8 | 0.00 | 0.00 | 0.00 | 42 | 929.2 |
| 20260906203902 | 23 | 182 | 6.4 | 9.7 | 0.00 | 0.00 | 0.00 | 43 | 929.6 |
| 20260906203400 | 23 | 226 | 1.6 | 4.8 | 0.00 | 0.00 | 0.00 | 43 | 929.6 |
| 20260906202902 | 23 | 212 | 0.0 | 14.5 | 0.00 | 0.00 | 0.00 | 45 | 929.2 |
| 20260906202401 | 23 | 127 | 11.3 | 11.3 | 0.00 | 0.00 | 0.00 | 43 | 929.6 |
| 20260906201903 | 23 | 66 | 3.2 | 6.4 | 0.00 | 0.00 | 0.00 | 42 | 929.6 |
| 20260906201401 | 22 | 273 | 3.2 | 4.8 | 0.00 | 0.00 | 0.00 | 44 | 929.6 |
| 20260906200901 | 22 | 137 | 1.6 | 9.7 | 0.00 | 0.00 | 0.00 | 44 | 929.6 |
| 20260906200401 | 23 | 338 | 4.8 | 9.7 | 0.00 | 0.00 | 0.00 | 43 | 929.6 |
| 20260906195901 | 22 | 81 | 0.0 | 6.4 | 0.00 | 0.00 | 0.00 | 44 | 929.6 |
| 20260906195401 | 22 | 70 | 3.2 | 4.8 | 0.00 | 0.00 | 0.00 | 45 | 929.6 |
| 20260906194901 | 21 | 163 | 1.6 | 3.2 | 0.00 | 0.00 | 0.00 | 48 | 929.6 |
| 20260906194402 | 21 | 33 | 1.6 | 6.4 | 0.00 | 0.00 | 0.00 | 46 | 929.6 |
| 20260906193901 | 21 | 58 | 4.8 | 9.7 | 0.00 | 0.00 | 0.00 | 47 | 929.9 |
| 20260906193401 | 21 | 14 | 3.2 | 8.0 | 0.00 | 0.00 | 0.00 | 48 | 929.9 |
| 20260906192901 | 21 | 263 | 4.8 | 6.4 | 0.00 | 0.00 | 0.00 | 47 | 930.2 |
| 20260906192403 | 21 | 340 | 3.2 | 8.0 | 0.00 | 0.00 | 0.00 | 48 | 929.9 |
| 20260906191901 | 21 | 305 | 4.8 | 6.4 | 0.00 | 0.00 | 0.00 | 49 | 930.2 |
| 20260906191401 | 21 | 154 | 4.8 | 8.0 | 0.00 | 0.00 | 0.00 | 48 | 929.9 |
| 20260906190902 | 21 | 341 | 3.2 | 8.0 | 0.00 | 0.00 | 0.00 | 47 | 930.2 |
| 20260906190401 | 20 | 305 | 3.2 | 6.4 | 0.00 | 0.00 | 0.00 | 50 | 930.6 |
| 20260906185901 | 21 | 36 | 4.8 | 9.7 | 0.00 | 0.00 | 0.00 | 48 | 930.6 |
| 20260906185409 | 20 | 47 | 1.6 | 4.8 | 0.00 | 0.00 | 0.00 | 48 | 930.6 |
| 20260906184902 | 20 | 53 | 1.6 | 4.8 | 0.00 | 0.00 | 0.00 | 51 | 930.6 |
| 20260906184401 | 21 | 72 | 4.8 | 6.4 | 0.00 | 0.00 | 0.00 | 48 | 930.6 |
| 20260906183901 | 21 | 141 | 3.2 | 8.0 | 0.00 | 0.00 | 0.00 | 49 | 930.6 |
| 20260906183401 | 20 | 121 | 4.8 | 8.0 | 0.00 | 0.00 | 0.00 | 50 | 930.9 |
| 20260906182902 | 19 | 70 | 1.6 | 4.8 | 0.00 | 0.00 | 0.00 | 55 | 930.9 |
| 20260906182401 | 20 | 217 | 3.2 | 6.4 | 0.00 | 0.00 | 0.00 | 53 | 931.3 |
| 20260906181901 | 19 | 312 | 6.4 | 9.7 | 0.00 | 0.00 | 0.00 | 53 | 931.3 |
| 20260906181401 | 19 | 327 | 4.8 | 9.7 | 0.00 | 0.00 | 0.00 | 54 | 931.3 |
| 20260906180901 | 19 | 11 | 3.2 | 8.0 | 0.00 | 0.00 | 0.00 | 54 | 931.3 |
| 20260906180402 | 19 | 183 | 0.0 | 11.3 | 0.00 | 0.00 | 0.00 | 54 | 931.3 |
| 20260906175901 | 18 | 11 | 6.4 | 9.7 | 0.00 | 0.00 | 0.00 | 55 | 931.3 |
| 20260906175403 | 18 | 328 | 6.4 | 8.0 | 0.00 | 0.00 | 0.00 | 58 | 931.3 |
| 20260906174901 | 18 | 345 | 1.6 | 6.4 | 0.00 | 0.00 | 0.00 | 56 | 931.6 |
| 20260906174401 | 18 | 135 | 0.0 | 4.8 | 0.00 | 0.00 | 0.00 | 58 | 931.6 |
| 20260906173901 | 17 | 164 | 3.2 | 4.8 | 0.00 | 0.00 | 0.00 | 59 | 931.6 |
| 20260906173401 | 17 | 162 | 3.2 | 4.8 | 0.00 | 0.00 | 0.00 | 59 | 931.9 |
| 20260906172901 | 17 | 16 | 6.4 | 9.7 | 0.00 | 0.00 | 0.00 | 60 | 931.6 |
| 20260906172401 | 17 | 318 | 8.0 | 9.7 | 0.00 | 0.00 | 0.00 | 60 | 931.9 |
| 20260906171901 | 16 | 53 | 0.0 | 11.3 | 0.00 | 0.00 | 0.00 | 61 | 931.9 |
| 20260906171401 | 17 | 13 | 6.4 | 9.7 | 0.00 | 0.00 | 0.00 | 62 | 931.9 |
| 20260906170901 | 17 | 60 | 0.0 | 3.2 | 0.00 | 0.00 | 0.00 | 62 | 931.9 |
| 20260906170401 | 16 | 34 | 0.0 | 3.2 | 0.00 | 0.00 | 0.00 | 64 | 931.9 |
| 20260906165901 | 16 | 78 | 1.6 | 3.2 | 0.00 | 0.00 | 0.00 | 64 | 931.9 |
| 20260906165401 | 16 | 355 | 3.2 | 4.8 | 0.00 | 0.00 | 0.00 | 62 | 931.9 |
| 20260906164902 | 15 | 151 | 1.6 | 4.8 | 0.00 | 0.00 | 0.00 | 67 | 931.9 |
| 20260906164401 | 15 | 88 | 0.0 | 6.4 | 0.00 | 0.00 | 0.00 | 67 | 931.9 |
| 20260906163901 | 15 | 158 | 1.6 | 3.2 | 0.00 | 0.00 | 0.00 | 70 | 931.9 |
| 20260906163401 | 15 | 134 | 4.8 | 6.4 | 0.00 | 0.00 | 0.00 | 68 | 931.9 |
| 20260906162908 | 15 | 156 | 6.4 | 6.4 | 0.00 | 0.00 | 0.00 | 66 | 932.3 |
| 20260906162401 | 15 | 73 | 1.6 | 8.0 | 0.00 | 0.00 | 0.00 | 66 | 932.3 |
| 20260906161901 | 15 | 42 | 1.6 | 6.4 | 0.00 | 0.00 | 0.00 | 68 | 932.3 |
| 20260906161401 | 15 | 46 | 8.0 | 11.3 | 0.00 | 0.00 | 0.00 | 66 | 932.3 |
| 20260906160901 | 15 | 45 | 4.8 | 4.8 | 0.00 | 0.00 | 0.00 | 67 | 932.6 |
| 20260906160401 | 14 | 83 | 3.2 | 6.4 | 0.00 | 0.00 | 0.00 | 73 | 932.6 |
| 20260906155901 | 14 | 105 | 3.2 | 4.8 | 0.00 | 0.00 | 0.00 | 74 | 932.6 |
| 20260906155401 | 13 | 101 | 4.8 | 6.4 | 0.00 | 0.00 | 0.00 | 76 | 932.6 |
| 20260906154901 | 13 | 129 | 1.6 | 8.0 | 0.00 | 0.00 | 0.00 | 79 | 932.6 |
| 20260906154401 | 12 | 133 | 4.8 | 6.4 | 0.00 | 0.00 | 0.00 | 83 | 932.6 |
| 20260906153902 | 12 | 122 | 4.8 | 8.0 | 0.00 | 0.00 | 0.00 | 83 | 933.0 |
| 20260906153401 | 12 | 121 | 3.2 | 6.4 | 0.00 | 0.00 | 0.00 | 83 | 933.0 |
| 20260906152902 | 11 | 119 | 1.6 | 3.2 | 0.00 | 0.00 | 0.00 | 94 | 933.0 |
| 20260906152401 | 11 | 132 | 4.8 | 8.0 | 0.00 | 0.00 | 0.00 | 95 | 933.0 |
| 20260906151901 | 11 | 77 | 3.2 | 6.4 | 0.00 | 0.00 | 0.00 | 96 | 933.0 |
| 20260906151401 | 11 | 102 | 1.6 | 9.7 | 0.00 | 0.00 | 0.00 | 98 | 933.0 |
| 20260906150901 | 10 | 46 | 4.8 | 9.7 | 0.00 | 0.00 | 0.00 | 99 | 933.0 |
| 20260906150402 | 10 | 143 | 6.4 | 6.4 | 0.00 | 0.00 | 0.00 | 99 | 933.0 |
| 20260906145901 | 10 | 89 | 1.6 | 3.2 | 0.00 | 0.00 | 0.00 | 99 | 933.3 |
| 20260906145401 | 9 | 72 | 4.8 | 6.4 | 0.00 | 0.00 | 0.00 | 99 | 933.3 |
| 20260906144901 | 8 | 93 | 6.4 | 11.3 | 0.00 | 0.00 | 0.00 | 99 | 933.3 |
| 20260906144401 | 8 | 26 | 8.0 | 14.5 | 0.00 | 0.00 | 0.00 | 99 | 933.3 |
| 20260906143901 | 8 | 64 | 1.6 | 6.4 | 0.00 | 0.00 | 0.00 | 99 | 933.3 |
| 20260906143403 | 8 | 268 | 0.0 | 4.8 | 0.00 | 0.00 | 0.00 | 99 | 933.3 |
| 20260906142902 | 8 | 33 | 0.0 | 6.4 | 0.00 | 0.00 | 0.00 | 99 | 933.6 |
| 20260906142402 | 8 | 341 | 1.6 | 6.4 | 0.00 | 0.00 | 0.00 | 99 | 933.3 |
| 20260906141902 | 7 | 54 | 3.2 | 4.8 | 0.00 | 0.00 | 0.00 | 99 | 933.6 |
| 20260906141401 | 7 | 39 | 4.8 | 6.4 | 0.00 | 0.00 | 0.00 | 99 | 933.3 |
| 20260906140902 | 7 | 108 | 1.6 | 4.8 | 0.00 | 0.00 | 0.00 | 99 | 933.3 |
| 20260906140401 | 7 | 140 | 4.8 | 4.8 | 0.00 | 0.00 | 0.00 | 99 | 933.3 |
| 20260906135901 | 7 | 122 | 4.8 | 6.4 | 0.00 | 0.00 | 0.00 | 99 | 933.3 |
| 20260906135400 | 7 | 77 | 4.8 | 6.4 | 0.00 | 0.00 | 0.00 | 99 | 933.3 |
| 20260906134901 | 7 | 129 | 1.6 | 8.0 | 0.00 | 0.00 | 0.00 | 99 | 933.3 |
| 20260906134401 | 7 | 28 | 1.6 | 6.4 | 0.00 | 0.00 | 0.00 | 99 | 933.3 |
| 20260906133902 | 7 | 96 | 3.2 | 6.4 | 0.00 | 0.00 | 0.00 | 98 | 933.3 |
| 20260906133401 | 7 | 332 | 4.8 | 6.4 | 0.00 | 0.00 | 0.00 | 98 | 933.0 |
| 20260906132901 | 7 | 38 | 3.2 | 6.4 | 0.00 | 0.00 | 0.00 | 99 | 933.3 |
| 20260906132401 | 7 | 119 | 3.2 | 8.0 | 0.00 | 0.00 | 0.00 | 99 | 933.0 |
| 20260906131901 | 8 | 53 | 8.0 | 8.0 | 0.00 | 0.00 | 0.00 | 99 | 933.0 |
| 20260906131401 | 8 | 69 | 4.8 | 8.0 | 0.00 | 0.00 | 0.00 | 99 | 933.0 |
| 20260906130902 | 8 | 211 | 6.4 | 8.0 | 0.00 | 0.00 | 0.00 | 99 | 933.0 |
| 20260906130402 | 7 | 47 | 6.4 | 8.0 | 0.00 | 0.00 | 0.00 | 98 | 933.0 |
| 20260906125903 | 7 | 80 | 8.0 | 9.7 | 0.00 | 0.00 | 0.00 | 98 | 933.0 |
| 20260906125401 | 7 | 117 | 6.4 | 8.0 | 0.00 | 0.00 | 0.00 | 98 | 933.3 |
| 20260906124901 | 7 | 55 | 8.0 | 8.0 | 0.00 | 0.00 | 0.00 | 98 | 933.0 |
| 20260906124400 | 7 | 2 | 3.2 | 8.0 | 0.00 | 0.00 | 0.00 | 98 | 933.0 |
| 20260906123901 | 7 | 100 | 4.8 | 4.8 | 0.00 | 0.00 | 0.00 | 98 | 933.0 |
| 20260906123401 | 7 | 2 | 4.8 | 8.0 | 0.00 | 0.00 | 0.00 | 98 | 933.0 |
| 20260906122901 | 7 | 54 | 3.2 | 8.0 | 0.00 | 0.00 | 0.00 | 98 | 933.0 |
| 20260906122401 | 7 | 10 | 0.0 | 6.4 | 0.00 | 0.00 | 0.00 | 98 | 933.0 |
| 20260906121901 | 7 | 152 | 4.8 | 8.0 | 0.00 | 0.00 | 0.00 | 98 | 933.3 |
| 20260906121401 | 7 | 46 | 8.0 | 8.0 | 0.00 | 0.00 | 0.00 | 98 | 933.0 |
| 20260906120901 | 7 | 33 | 6.4 | 9.7 | 0.00 | 0.00 | 0.00 | 98 | 933.0 |
| 20260906120401 | 7 | 339 | 6.4 | 6.4 | 0.00 | 0.00 | 0.00 | 98 | 933.3 |
| 20260906115901 | 8 | 71 | 4.8 | 8.0 | 0.00 | 0.00 | 0.00 | 98 | 933.0 |
| 20260906115429 | 8 | 120 | 9.7 | 9.7 | 0.00 | 0.00 | 0.00 | 98 | 933.0 |
| 20260906114901 | 7 | 298 | 1.6 | 6.4 | 0.00 | 0.00 | 0.00 | 98 | 933.3 |
| 20260906114401 | 8 | 96 | 4.8 | 11.3 | 0.00 | 0.00 | 0.00 | 97 | 933.3 |
| 20260906113901 | 8 | 1 | 4.8 | 8.0 | 0.00 | 0.00 | 0.00 | 97 | 933.3 |
| 20260906113401 | 8 | 54 | 3.2 | 8.0 | 0.00 | 0.00 | 0.00 | 97 | 933.6 |
| 20260906112901 | 8 | 213 | 4.8 | 6.4 | 0.00 | 0.00 | 0.00 | 97 | 933.3 |
| 20260906112401 | 8 | 132 | 8.0 | 9.7 | 0.00 | 0.00 | 0.00 | 97 | 933.3 |
| 20260906111901 | 8 | 139 | 4.8 | 8.0 | 0.00 | 0.00 | 0.00 | 97 | 933.3 |
| 20260906111401 | 8 | 9 | 11.3 | 11.3 | 0.00 | 0.00 | 0.00 | 97 | 933.3 |
| 20260906110901 | 8 | 80 | 4.8 | 11.3 | 0.00 | 0.00 | 0.00 | 97 | 933.6 |
| 20260906110401 | 8 | 98 | 6.4 | 8.0 | 0.00 | 0.00 | 0.00 | 97 | 933.3 |
| 20260906105901 | 8 | 114 | 3.2 | 6.4 | 0.00 | 0.00 | 0.00 | 97 | 933.6 |
| 20260906105402 | 8 | 105 | 3.2 | 4.8 | 0.00 | 0.00 | 0.00 | 97 | 933.6 |
| 20260906104901 | 8 | 133 | 4.8 | 4.8 | 0.00 | 0.00 | 0.00 | 97 | 933.3 |
| 20260906104401 | 8 | 13 | 3.2 | 4.8 | 0.00 | 0.00 | 0.00 | 96 | 933.3 |
| 20260906103901 | 8 | 14 | 9.7 | 11.3 | 0.00 | 0.00 | 0.00 | 96 | 933.6 |
| 20260906103401 | 8 | 109 | 4.8 | 8.0 | 0.00 | 0.00 | 0.00 | 96 | 933.6 |
| 20260906102900 | 8 | 135 | 6.4 | 6.4 | 0.00 | 0.00 | 0.00 | 97 | 933.6 |
| 20260906102401 | 8 | 62 | 0.0 | 3.2 | 0.00 | 0.00 | 0.00 | 96 | 933.6 |
| 20260906101901 | 8 | 7 | 6.4 | 8.0 | 0.00 | 0.00 | 0.00 | 96 | 933.3 |
| 20260906101401 | 8 | 88 | 0.0 | 6.4 | 0.00 | 0.00 | 0.00 | 96 | 933.6 |
| 20260906100901 | 8 | 70 | 4.8 | 8.0 | 0.00 | 0.00 | 0.00 | 96 | 933.6 |
| 20260906100401 | 7 | 94 | 3.2 | 4.8 | 0.00 | 0.00 | 0.00 | 96 | 933.6 |
| 20260906095901 | 7 | 121 | 4.8 | 4.8 | 0.00 | 0.00 | 0.00 | 95 | 933.6 |
| 20260906095401 | 7 | 8 | 6.4 | 9.7 | 0.00 | 0.00 | 0.00 | 95 | 933.3 |
| 20260906094901 | 8 | 34 | 8.0 | 8.0 | 0.00 | 0.00 | 0.00 | 95 | 933.6 |
| 20260906094401 | 8 | 96 | 3.2 | 6.4 | 0.00 | 0.00 | 0.00 | 95 | 934.0 |
| 20260906093900 | 8 | 89 | 4.8 | 6.4 | 0.00 | 0.00 | 0.00 | 95 | 933.6 |
| 20260906093401 | 8 | 121 | 1.6 | 3.2 | 0.00 | 0.00 | 0.00 | 95 | 933.6 |
| 20260906092900 | 8 | 139 | 3.2 | 3.2 | 0.00 | 0.00 | 0.00 | 96 | 933.3 |
| 20260906092401 | 8 | 66 | 3.2 | 4.8 | 0.00 | 0.00 | 0.00 | 95 | 933.6 |
| 20260906091901 | 8 | 54 | 1.6 | 3.2 | 0.00 | 0.00 | 0.00 | 96 | 933.6 |
| 20260906091401 | 8 | 41 | 4.8 | 4.8 | 0.00 | 0.00 | 0.00 | 95 | 933.6 |
| 20260906090901 | 8 | 70 | 0.0 | 4.8 | 0.00 | 0.00 | 0.00 | 94 | 933.3 |
| 20260906090401 | 8 | 39 | 6.4 | 6.4 | 0.00 | 0.00 | 0.00 | 94 | 933.6 |
| 20260906085901 | 8 | 57 | 6.4 | 6.4 | 0.00 | 0.00 | 0.00 | 94 | 933.6 |
| 20260906085401 | 8 | 113 | 4.8 | 6.4 | 0.00 | 0.00 | 0.00 | 94 | 933.6 |
| 20260906084901 | 8 | 128 | 4.8 | 4.8 | 0.00 | 0.00 | 0.00 | 94 | 933.3 |
| 20260906084401 | 8 | 64 | 3.2 | 4.8 | 0.00 | 0.00 | 0.00 | 94 | 933.3 |
| 20260906083901 | 8 | 36 | 6.4 | 6.4 | 0.00 | 0.00 | 0.00 | 94 | 933.3 |
| 20260906083402 | 8 | 137 | 4.8 | 4.8 | 0.00 | 0.00 | 0.00 | 93 | 933.3 |
| 20260906082901 | 8 | 144 | 4.8 | 4.8 | 0.00 | 0.00 | 0.00 | 94 | 933.6 |
| 20260906082401 | 8 | 105 | 0.0 | 6.4 | 0.00 | 0.00 | 0.00 | 94 | 933.6 |
| 20260906081901 | 8 | 41 | 9.7 | 9.7 | 0.00 | 0.00 | 0.00 | 93 | 934.0 |
| 20260906081400 | 8 | 127 | 4.8 | 6.4 | 0.00 | 0.00 | 0.00 | 93 | 934.0 |
| 20260906080901 | 8 | 151 | 4.8 | 6.4 | 0.00 | 0.00 | 0.00 | 94 | 933.6 |
| 20260906080401 | 8 | 109 | 3.2 | 4.8 | 0.00 | 0.00 | 0.00 | 95 | 933.6 |
| 20260906075901 | 8 | 32 | 0.0 | 3.2 | 0.00 | 0.00 | 0.00 | 94 | 934.0 |
| 20260906075401 | 8 | 55 | 4.8 | 6.4 | 0.00 | 0.00 | 0.00 | 94 | 934.0 |
| 20260906074901 | 7 | 42 | 6.4 | 8.0 | 0.00 | 0.00 | 0.00 | 93 | 934.0 |
| 20260906074402 | 8 | 130 | 4.8 | 6.4 | 0.00 | 0.00 | 0.00 | 94 | 934.0 |
| 20260906073902 | 8 | 98 | 0.0 | 1.6 | 0.00 | 0.00 | 0.00 | 93 | 934.0 |
| 20260906073401 | 8 | 124 | 0.0 | 1.6 | 0.00 | 0.00 | 0.00 | 93 | 934.0 |
| 20260906072901 | 8 | 62 | 3.2 | 4.8 | 0.00 | 0.00 | 0.00 | 93 | 934.3 |
| 20260906072401 | 8 | 129 | 3.2 | 3.2 | 0.00 | 0.00 | 0.00 | 93 | 934.3 |
| 20260906071901 | 8 | 51 | 0.0 | 3.2 | 0.00 | 0.00 | 0.00 | 93 | 934.3 |
| 20260906071401 | 8 | 83 | 0.0 | 3.2 | 0.00 | 0.00 | 0.00 | 92 | 934.3 |
| 20260906070901 | 8 | 52 | 3.2 | 4.8 | 0.00 | 0.00 | 0.00 | 92 | 934.6 |
| 20260906070401 | 8 | 57 | 3.2 | 4.8 | 0.00 | 0.00 | 0.00 | 92 | 934.3 |
| 20260906065901 | 8 | 72 | 0.0 | 4.8 | 0.00 | 0.00 | 0.00 | 91 | 934.6 |
| 20260906065401 | 8 | 133 | 4.8 | 6.4 | 0.00 | 0.00 | 0.00 | 91 | 934.3 |
| 20260906064901 | 8 | 140 | 4.8 | 4.8 | 0.00 | 0.00 | 0.00 | 91 | 934.3 |
| 20260906064400 | 8 | 34 | 0.0 | 0.0 | 0.00 | 0.00 | 0.00 | 91 | 934.6 |
| 20260906063901 | 8 | 83 | 1.6 | 4.8 | 0.00 | 0.00 | 0.00 | 91 | 934.6 |
| 20260906063401 | 8 | 63 | 3.2 | 3.2 | 0.00 | 0.00 | 0.00 | 91 | 934.6 |
| 20260906062901 | 8 | 66 | 4.8 | 6.4 | 0.00 | 0.00 | 0.00 | 90 | 934.3 |
| 20260906062402 | 8 | 65 | 3.2 | 4.8 | 0.00 | 0.00 | 0.00 | 91 | 934.3 |
| 20260906061901 | 8 | 58 | 3.2 | 4.8 | 0.00 | 0.00 | 0.00 | 90 | 934.3 |
| 20260906061401 | 9 | 86 | 4.8 | 4.8 | 0.00 | 0.00 | 0.00 | 89 | 934.6 |
| 20260906060901 | 9 | 119 | 0.0 | 3.2 | 0.00 | 0.00 | 0.00 | 89 | 934.3 |
| 20260906060401 | 9 | 110 | 1.6 | 4.8 | 0.00 | 0.00 | 0.00 | 88 | 934.6 |
| 20260906055901 | 9 | 117 | 0.0 | 1.6 | 0.00 | 0.00 | 0.00 | 89 | 934.3 |
| 20260906055401 | 10 | 87 | 3.2 | 3.2 | 0.00 | 0.00 | 0.00 | 88 | 934.6 |
| 20260906054901 | 10 | 72 | 3.2 | 6.4 | 0.00 | 0.00 | 0.00 | 88 | 934.6 |
| 20260906054402 | 10 | 42 | 6.4 | 6.4 | 0.00 | 0.00 | 0.00 | 87 | 935.0 |
| 20260906053900 | 10 | 127 | 3.2 | 4.8 | 0.00 | 0.00 | 0.00 | 86 | 934.6 |
| 20260906053401 | 10 | 49 | 0.0 | 0.0 | 0.00 | 0.00 | 0.00 | 85 | 934.6 |
| 20260906052901 | 10 | 49 | 0.0 | 4.8 | 0.00 | 0.00 | 0.00 | 85 | 935.0 |
| 20260906052401 | 10 | 41 | 4.8 | 6.4 | 0.00 | 0.00 | 0.00 | 85 | 935.0 |
| 20260906051901 | 10 | 47 | 1.6 | 4.8 | 0.00 | 0.00 | 0.00 | 84 | 934.6 |
| 20260906051401 | 10 | 28 | 4.8 | 4.8 | 0.00 | 0.00 | 0.00 | 84 | 934.6 |
| 20260906050900 | 10 | 73 | 1.6 | 3.2 | 0.00 | 0.00 | 0.00 | 84 | 935.0 |
| 20260906050403 | 10 | 64 | 4.8 | 4.8 | 0.00 | 0.00 | 0.00 | 84 | 935.0 |
| 20260906045901 | 10 | 69 | 3.2 | 4.8 | 0.00 | 0.00 | 0.00 | 81 | 935.0 |
| 20260906045401 | 10 | 137 | 3.2 | 4.8 | 0.00 | 0.00 | 0.00 | 82 | 934.6 |
| 20260906044901 | 11 | 137 | 3.2 | 4.8 | 0.00 | 0.00 | 0.00 | 83 | 935.0 |
| 20260906044401 | 11 | 102 | 1.6 | 1.6 | 0.00 | 0.00 | 0.00 | 82 | 935.0 |
| 20260906043901 | 11 | 97 | 0.0 | 3.2 | 0.00 | 0.00 | 0.00 | 82 | 935.0 |
| 20260906043401 | 11 | 68 | 3.2 | 4.8 | 0.00 | 0.00 | 0.00 | 80 | 935.0 |
| 20260906042901 | 11 | 30 | 4.8 | 9.7 | 0.00 | 0.00 | 0.00 | 80 | 934.6 |
| 20260906042403 | 11 | 55 | 0.0 | 3.2 | 0.00 | 0.00 | 0.00 | 81 | 935.0 |
| 20260906041902 | 11 | 74 | 4.8 | 4.8 | 0.00 | 0.00 | 0.00 | 79 | 934.6 |
| 20260906041403 | 11 | 89 | 3.2 | 3.2 | 0.00 | 0.00 | 0.00 | 79 | 934.6 |
| 20260906040901 | 12 | 56 | 3.2 | 4.8 | 0.00 | 0.00 | 0.00 | 78 | 934.3 |
| 20260906040401 | 12 | 87 | 3.2 | 3.2 | 0.00 | 0.00 | 0.00 | 77 | 934.6 |
| 20260906035901 | 12 | 131 | 0.0 | 3.2 | 0.00 | 0.00 | 0.00 | 75 | 934.6 |
| 20260906035401 | 12 | 315 | 0.0 | 3.2 | 0.00 | 0.00 | 0.00 | 74 | 934.6 |
| 20260906034901 | 13 | 47 | 1.6 | 3.2 | 0.00 | 0.00 | 0.00 | 73 | 934.6 |
| 20260906034401 | 13 | 69 | 0.0 | 3.2 | 0.00 | 0.00 | 0.00 | 72 | 934.6 |
| 20260906033902 | 13 | 306 | 3.2 | 4.8 | 0.00 | 0.00 | 0.00 | 71 | 934.6 |
| 20260906033401 | 13 | 30 | 6.4 | 6.4 | 0.00 | 0.00 | 0.00 | 72 | 934.6 |
| 20260906032901 | 14 | 15 | 1.6 | 4.8 | 0.00 | 0.00 | 0.00 | 71 | 934.3 |
| 20260906032401 | 14 | 307 | 1.6 | 4.8 | 0.00 | 0.00 | 0.00 | 72 | 934.3 |
| 20260906031901 | 13 | 350 | 1.6 | 4.8 | 0.00 | 0.00 | 0.00 | 72 | 934.3 |
| 20260906031401 | 14 | 18 | 4.8 | 4.8 | 0.00 | 0.00 | 0.00 | 68 | 934.3 |
| 20260906030901 | 14 | 46 | 4.8 | 4.8 | 0.00 | 0.00 | 0.00 | 67 | 934.3 |
| 20260906030401 | 15 | 48 | 1.6 | 3.2 | 0.00 | 0.00 | 0.00 | 66 | 934.0 |
| 20260906025901 | 15 | 86 | 1.6 | 4.8 | 0.00 | 0.00 | 0.00 | 65 | 934.0 |
| 20260906025401 | 15 | 56 | 3.2 | 4.8 | 0.00 | 0.00 | 0.00 | 65 | 934.0 |
| 20260906024902 | 15 | 81 | 4.8 | 4.8 | 0.00 | 0.00 | 0.00 | 64 | 934.0 |
| 20260906024401 | 16 | 85 | 3.2 | 4.8 | 0.00 | 0.00 | 0.00 | 61 | 933.6 |
| 20260906023901 | 16 | 48 | 3.2 | 4.8 | 0.00 | 0.00 | 0.00 | 59 | 933.6 |
| 20260906023401 | 17 | 37 | 0.0 | 0.0 | 0.00 | 0.00 | 0.00 | 56 | 933.6 |
| 20260906022901 | 17 | 322 | 3.2 | 4.8 | 0.00 | 0.00 | 0.00 | 56 | 933.6 |
| 20260906022401 | 16 | 14 | 3.2 | 6.4 | 0.00 | 0.00 | 0.00 | 56 | 933.6 |
| 20260906021902 | 17 | 43 | 4.8 | 4.8 | 0.00 | 0.00 | 0.00 | 56 | 933.6 |
| 20260906021401 | 17 | 27 | 4.8 | 6.4 | 0.00 | 0.00 | 0.00 | 55 | 933.6 |
| 20260906020901 | 17 | 355 | 4.8 | 8.0 | 0.00 | 0.00 | 0.00 | 54 | 933.6 |
| 20260906020402 | 17 | 27 | 8.0 | 8.0 | 0.00 | 0.00 | 0.00 | 52 | 933.6 |
| 20260906015901 | 18 | 360 | 4.8 | 8.0 | 0.00 | 0.00 | 0.00 | 51 | 933.6 |
| 20260906015401 | 18 | 359 | 4.8 | 9.7 | 0.00 | 0.00 | 0.00 | 50 | 933.6 |
| 20260906014904 | 18 | 238 | 1.6 | 11.3 | 0.00 | 0.00 | 0.00 | 49 | 933.6 |
| 20260906014401 | 18 | 303 | 9.7 | 9.7 | 0.00 | 0.00 | 0.00 | 48 | 933.6 |
| 20260906013901 | 18 | 302 | 0.0 | 9.7 | 0.00 | 0.00 | 0.00 | 47 | 933.3 |
| 20260906013401 | 19 | 215 | 3.2 | 6.4 | 0.00 | 0.00 | 0.00 | 46 | 933.3 |
| 20260906012903 | 20 | 265 | 4.8 | 8.0 | 0.00 | 0.00 | 0.00 | 45 | 933.0 |
| 20260906012401 | 20 | 326 | 3.2 | 11.3 | 0.00 | 0.00 | 0.00 | 45 | 933.0 |
| 20260906011901 | 21 | 302 | 3.2 | 8.0 | 0.00 | 0.00 | 0.00 | 43 | 933.0 |
| 20260906011401 | 20 | 355 | 4.8 | 6.4 | 0.00 | 0.00 | 0.00 | 42 | 933.0 |
| 20260906010901 | 20 | 82 | 1.6 | 4.8 | 0.00 | 0.00 | 0.00 | 42 | 933.0 |
| 20260906010401 | 20 | 292 | 6.4 | 11.3 | 0.00 | 0.00 | 0.00 | 42 | 933.0 |
| 20260906005901 | 21 | 295 | 9.7 | 17.7 | 0.00 | 0.00 | 0.00 | 41 | 933.0 |
| 20260906005401 | 20 | 264 | 0.0 | 14.5 | 0.00 | 0.00 | 0.00 | 41 | 933.0 |
| 20260906004901 | 20 | 302 | 8.0 | 17.7 | 0.00 | 0.00 | 0.00 | 41 | 933.0 |
| 20260906004401 | 21 | 304 | 8.0 | 19.3 | 0.00 | 0.00 | 0.00 | 41 | 933.0 |
| 20260906003901 | 21 | 343 | 8.0 | 12.9 | 0.00 | 0.00 | 0.00 | 41 | 933.0 |
| 20260906003401 | 21 | 310 | 6.4 | 11.3 | 0.00 | 0.00 | 0.00 | 40 | 933.0 |
| 20260906002901 | 21 | 230 | 0.0 | 6.4 | 0.00 | 0.00 | 0.00 | 40 | 933.0 |
| 20260906002401 | 21 | 328 | 6.4 | 11.3 | 0.00 | 0.00 | 0.00 | 41 | 933.0 |
| 20260906001901 | 20 | 298 | 9.7 | 17.7 | 0.00 | 0.00 | 0.00 | 41 | 932.6 |
| 20260906001401 | 20 | 298 | 11.3 | 16.1 | 0.00 | 0.00 | 0.00 | 41 | 933.0 |
| 20260906000901 | 20 | 296 | 9.7 | 14.5 | 0.00 | 0.00 | 0.00 | 41 | 933.0 |
| 20260906000403 | 20 | 272 | 16.1 | 17.7 | 0.00 | 0.00 | 0.00 | 41 | 933.0 |
| 20260905235901 | 20 | 283 | 8.0 | 17.7 | 0.00 | 0.00 | 0.00 | 41 | 933.3 |
| 20260905235401 | 21 | 306 | 11.3 | 16.1 | 0.00 | 0.00 | 0.00 | 41 | 933.0 |
| 20260905234901 | 21 | 323 | 11.3 | 17.7 | 0.00 | 0.00 | 0.00 | 40 | 933.0 |
| 20260905234401 | 21 | 305 | 11.3 | 20.9 | 0.00 | 0.00 | 0.00 | 40 | 933.3 |
| 20260905233901 | 21 | 300 | 3.2 | 4.8 | 0.00 | 0.00 | 0.00 | 41 | 933.0 |
| 20260905233401 | 21 | 238 | 4.8 | 16.1 | 0.00 | 0.00 | 0.00 | 41 | 933.0 |
| 20260905232901 | 21 | 180 | 3.2 | 16.1 | 0.00 | 0.00 | 0.00 | 41 | 933.0 |
| 20260905232401 | 21 | 245 | 3.2 | 14.5 | 0.00 | 0.00 | 0.00 | 40 | 933.0 |
| 20260905231901 | 21 | 118 | 1.6 | 12.9 | 0.00 | 0.00 | 0.00 | 41 | 933.0 |
| 20260905231401 | 21 | 326 | 6.4 | 19.3 | 0.00 | 0.00 | 0.00 | 41 | 933.0 |
| 20260905230901 | 22 | 303 | 9.7 | 11.3 | 0.00 | 0.00 | 0.00 | 40 | 933.3 |
| 20260905230401 | 21 | 274 | 1.6 | 6.4 | 0.00 | 0.00 | 0.00 | 41 | 933.0 |
| 20260905225901 | 21 | 213 | 3.2 | 8.0 | 0.00 | 0.00 | 0.00 | 41 | 933.0 |
| 20260905225401 | 21 | 252 | 1.6 | 9.7 | 0.00 | 0.00 | 0.00 | 43 | 933.3 |
| 20260905224901 | 20 | 272 | 4.8 | 14.5 | 0.00 | 0.00 | 0.00 | 44 | 933.3 |
| 20260905224401 | 20 | 318 | 3.2 | 9.7 | 0.00 | 0.00 | 0.00 | 47 | 933.3 |
| 20260905223901 | 20 | 276 | 8.0 | 11.3 | 0.00 | 0.00 | 0.00 | 48 | 933.3 |
| 20260905223401 | 20 | 300 | 3.2 | 8.0 | 0.00 | 0.00 | 0.00 | 48 | 933.6 |
| 20260905222901 | 20 | 251 | 4.8 | 14.5 | 0.00 | 0.00 | 0.00 | 47 | 933.6 |